TimeEST,TemperatureF,Dew PointF,Humidity,Sea Level PressureIn,VisibilityMPH,Wind Direction,Wind SpeedMPH,Gust SpeedMPH,PrecipitationIn,Events,Conditions,WindDirDegrees,DateUTC
12:53 AM,21.9,6.1,51,30.09,10.0,Variable,6.9,-,N/A,,Overcast,0,2013-12-13 05:53:00
1:53 AM,21.9,6.1,51,30.08,10.0,Variable,6.9,-,N/A,,Overcast,0,2013-12-13 06:53:00
2:53 AM,21.9,6.1,51,30.07,10.0,SSW,10.4,17.3,N/A,,Mostly Cloudy,210,2013-12-13 07:53:00
3:53 AM,21.9,6.1,51,30.07,10.0,SW,11.5,18.4,N/A,,Scattered Clouds,220,2013-12-13 08:53:00
4:53 AM,23.0,6.1,48,30.08,10.0,SW,12.7,21.9,N/A,,Overcast,230,2013-12-13 09:53:00
5:53 AM,23.0,5.0,46,30.08,10.0,SW,12.7,19.6,N/A,,Overcast,230,2013-12-13 10:53:00
6:53 AM,24.1,6.1,46,30.09,10.0,SW,12.7,-,N/A,,Overcast,230,2013-12-13 11:53:00
7:53 AM,24.1,7.0,48,30.11,10.0,SW,8.1,-,N/A,,Overcast,220,2013-12-13 12:53:00
8:53 AM,25.0,8.1,49,30.12,10.0,SW,9.2,18.4,N/A,,Scattered Clouds,220,2013-12-13 13:53:00
9:53 AM,27.0,9.0,47,30.13,10.0,SW,9.2,-,N/A,,Overcast,230,2013-12-13 14:53:00
10:53 AM,28.0,10.0,47,30.12,10.0,SW,9.2,-,N/A,,Overcast,220,2013-12-13 15:53:00
11:53 AM,32.0,12.9,45,30.09,10.0,WSW,11.5,18.4,N/A,,Mostly Cloudy,250,2013-12-13 16:53:00
12:53 PM,33.1,14.0,46,30.09,10.0,WSW,13.8,21.9,N/A,,Scattered Clouds,250,2013-12-13 17:53:00
1:53 PM,33.1,12.9,43,30.10,10.0,WSW,15.0,25.3,N/A,,Overcast,250,2013-12-13 18:53:00
2:53 PM,33.1,14.0,46,30.12,10.0,WSW,11.5,-,N/A,,Overcast,250,2013-12-13 19:53:00
3:53 PM,32.0,14.0,48,30.15,10.0,West,8.1,-,N/A,,Mostly Cloudy,270,2013-12-13 20:53:00
4:53 PM,30.9,14.0,50,30.16,10.0,Calm,Calm,-,N/A,,Partly Cloudy,0,2013-12-13 21:53:00
5:53 PM,28.9,15.1,56,30.19,10.0,West,3.5,-,N/A,,Partly Cloudy,270,2013-12-13 22:53:00
6:53 PM,26.1,18.0,71,30.23,10.0,North,4.6,-,N/A,,Overcast,350,2013-12-13 23:53:00
7:53 PM,27.0,15.1,61,30.27,10.0,NNE,6.9,-,N/A,,Overcast,20,2013-12-14 00:53:00
8:53 PM,25.0,12.9,60,30.30,10.0,NE,6.9,-,N/A,,Overcast,50,2013-12-14 01:53:00
9:53 PM,24.1,12.0,60,30.32,10.0,NE,9.2,-,N/A,,Overcast,40,2013-12-14 02:53:00
10:05 PM,24.8,10.4,54,30.33,10.0,NE,10.4,-,N/A,,Overcast,40,2013-12-14 03:05:00
10:53 PM,24.1,10.0,55,30.36,10.0,NNE,6.9,-,N/A,,Overcast,20,2013-12-14 03:53:00
11:53 PM,23.0,8.1,53,30.35,10.0,NNE,6.9,-,N/A,,Overcast,30,2013-12-14 04:53:00